STARLINK-30406

decayed
NORAD ID: 57881 Int'l Des: 2023-144 Owner: SPXS Country: US Constellation: starlink
LEOCIRCULAR
Group

About STARLINK-30406

Description loading...

Altitude History

Altitude vs Time

uPlot chart will show altitude changes over time

Two-Line Element Set

1 57881U 23144T 25008.42462289 .29889907 90576-5 47360-2 0 9991
2 57881 42.9760 21.7564 0013616 115.9333 26.1209 16.32468481 74291
Epoch: Jan 8, 2025 • Age: 6037 hours

Current Status

Position data unavailable
Launch Date Sep 16, 2023
Age 2 years
Decay Date Jan 8, 2025
Type internet

Technical Details

Classification Payload
Mass 730.00 kg
Dry Mass 700.00 kg
Total Mass 730.00 kg
Length 0.30 m
Diameter 4.10 m
Span 29.00 m
Shape Box + pan
Manufacturer SPXS
Bus Type Starlink V2M
Phase Status Unknown Transfer Status
Owner/State SPXS/US

Large Constellations

Loading constellations...